AK4FD Weather Reports


time (UTC)temp
F
wind
direction
speed
knots
gust
knots
rain 1hr
in
rain 24hr
in
rain mn
in
humidity
%
barometer
mb
20260508145344 61 109 1.7 3.5 0.00 0.00 0.00 51 1019.0
20260508144841 61 39 1.7 1.7 0.00 0.00 0.00 58 1019.0
20260508144339 60 81 0.9 1.7 0.00 0.00 0.00 57 1018.9
20260508143836 60 121 1.7 3.5 0.00 0.00 0.00 54 1019.1
20260508143333 60 68 0.9 1.7 0.00 0.00 0.00 57 1019.2
20260508142830 60 89 0.0 1.7 0.00 0.00 0.00 58 1019.2
20260508142327 60 143 1.7 3.5 0.00 0.00 0.00 55 1019.0
20260508141823 59 100 4.3 4.3 0.00 0.00 0.00 58 1019.1
20260508141320 59 63 0.0 1.7 0.00 0.00 0.00 57 1019.1
20260508140818 59 93 3.5 4.3 0.00 0.00 0.00 55 1019.0
20260508140315 59 89 0.0 1.7 0.00 0.00 0.00 57 1019.0
20260508135810 59 39 1.7 2.6 0.00 0.00 0.00 60 1019.1
20260508135307 59 76 0.0 1.7 0.00 0.00 0.00 64 1018.7
20260508134803 58 59 1.7 3.5 0.00 0.00 0.00 63 1019.1
20260508134300 58 88 0.9 1.7 0.00 0.00 0.00 62 1018.9
20260508133756 58 76 1.7 2.6 0.00 0.00 0.00 65 1018.9
20260508133254 58 71 1.7 1.7 0.00 0.00 0.00 66 1019.0
20260508132752 57 93 1.7 1.7 0.00 0.00 0.00 69 1019.0
20260508132249 57 82 2.6 2.6 0.00 0.00 0.00 68 1018.9
20260508131745 56 74 0.9 1.7 0.00 0.00 0.00 77 1018.9
20260508131241 56 82 0.9 1.7 0.00 0.00 0.00 75 1018.9
20260508130737 55 103 0.0 1.7 0.00 0.00 0.00 75 1018.7
20260508130235 54 86 1.7 1.7 0.00 0.00 0.00 87 1018.9
20260508125731 54 95 1.7 1.7 0.00 0.00 0.00 88 1018.8
20260508125227 53 77 1.7 1.7 0.00 0.00 0.00 89 1018.6
20260508124726 53 93 1.7 1.7 0.00 0.00 0.00 90 1018.8
20260508124222 53 86 1.7 2.6 0.00 0.00 0.00 90 1018.5
20260508123721 52 88 1.7 1.7 0.00 0.00 0.00 89 1018.4
20260508123218 52 95 1.7 1.7 0.00 0.00 0.00 89 1018.4
20260508122714 51 75 1.7 2.6 0.00 0.00 0.00 87 1018.5
20260508122211 51 92 1.7 1.7 0.00 0.00 0.00 88 1018.5
20260508121709 50 76 1.7 2.6 0.00 0.00 0.00 88 1018.4
20260508121207 50 89 2.6 3.5 0.00 0.00 0.00 91 1018.4
20260508120704 50 95 1.7 2.6 0.00 0.00 0.00 93 1018.4
20260508120202 49 93 1.7 2.6 0.00 0.00 0.00 94 1018.4
20260508115659 49 93 1.7 1.7 0.00 0.00 0.00 95 1018.2
20260508115156 49 94 1.7 2.6 0.00 0.00 0.00 95 1018.0
20260508114653 49 86 1.7 2.6 0.00 0.00 0.00 95 1018.2
20260508114150 48 92 1.7 2.6 0.00 0.00 0.00 95 1017.9
20260508113647 48 78 1.7 1.7 0.00 0.00 0.00 95 1017.8
20260508113145 48 83 1.7 2.6 0.00 0.00 0.00 95 1017.8
20260508112641 48 95 1.7 2.6 0.00 0.00 0.00 95 1017.5
20260508112138 48 93 1.7 2.6 0.00 0.00 0.00 94 1017.5
20260508111634 48 77 1.7 1.7 0.00 0.00 0.00 94 1017.4
20260508111131 47 92 1.7 1.7 0.00 0.00 0.00 94 1017.2
20260508110629 47 85 1.7 1.7 0.00 0.00 0.00 93 1017.3
20260508110126 47 89 0.9 1.7 0.00 0.00 0.00 93 1017.1
20260508105625 48 92 1.7 1.7 0.00 0.00 0.00 94 1017.2
20260508105123 47 79 1.7 2.6 0.00 0.00 0.00 94 1017.2
20260508104620 47 102 1.7 2.6 0.00 0.00 0.00 93 1017.0
20260508104117 47 87 1.7 2.6 0.00 0.00 0.00 93 1017.0
20260508103615 47 89 1.7 1.7 0.00 0.00 0.00 93 1016.7
20260508103111 47 93 1.7 1.7 0.00 0.00 0.00 93 1016.6
20260508102609 47 86 1.7 1.7 0.00 0.00 0.00 94 1016.3
20260508102106 47 100 1.7 1.7 0.00 0.00 0.00 94 1016.5
20260508101603 47 105 0.9 1.7 0.00 0.00 0.00 94 1016.3
20260508101101 47 85 1.7 1.7 0.00 0.00 0.00 93 1016.4
20260508100558 48 93 0.9 1.7 0.00 0.00 0.00 93 1016.2
20260508100055 48 84 0.9 1.7 0.00 0.00 0.00 93 1016.3
20260508095552 48 104 1.7 1.7 0.00 0.00 0.00 93 1016.4
20260508095049 48 81 1.7 1.7 0.00 0.00 0.00 93 1016.2
20260508094546 48 96 0.9 1.7 0.00 0.00 0.00 93 1016.2
20260508094043 48 93 1.7 1.7 0.00 0.00 0.00 93 1016.1
20260508093540 48 98 0.9 1.7 0.00 0.00 0.00 94 1016.0
20260508093038 48 69 1.7 1.7 0.00 0.00 0.00 93 1016.0
20260508092535 48 86 0.9 1.7 0.00 0.00 0.00 93 1016.2
20260508092034 48 97 1.7 1.7 0.00 0.00 0.00 93 1016.0
20260508091530 48 93 1.7 1.7 0.00 0.00 0.00 93 1015.9
20260508091027 48 85 1.7 1.7 0.00 0.00 0.00 93 1016.1
20260508090525 48 84 0.9 1.7 0.00 0.00 0.00 93 1015.9
20260508090022 48 93 1.7 1.7 0.00 0.00 0.00 93 1016.0
20260508085518 48 106 1.7 1.7 0.00 0.00 0.00 93 1016.0
20260508085015 48 98 1.7 1.7 0.00 0.00 0.00 93 1015.8
20260508084512 48 100 1.7 1.7 0.00 0.00 0.00 93 1015.8
20260508084010 48 71 1.7 1.7 0.00 0.00 0.00 93 1016.1
20260508083507 48 96 1.7 1.7 0.00 0.00 0.00 92 1016.0
20260508083003 49 89 1.7 1.7 0.00 0.00 0.00 92 1015.8
20260508082459 49 79 1.7 1.7 0.00 0.00 0.00 92 1015.9
20260508081957 49 75 1.7 1.7 0.00 0.00 0.00 92 1015.7
20260508081454 49 89 1.7 1.7 0.00 0.00 0.00 90 1015.9
20260508080950 49 89 0.0 1.7 0.00 0.00 0.00 91 1015.7
20260508080448 49 112 0.0 1.7 0.00 0.00 0.00 92 1015.7
20260508075944 49 100 0.0 1.7 0.00 0.00 0.00 92 1015.6
20260508075441 49 99 1.7 1.7 0.00 0.00 0.00 93 1015.5
20260508074939 49 117 0.9 1.7 0.00 0.00 0.00 93 1015.3
20260508074436 49 127 0.9 1.7 0.00 0.00 0.00 93 1015.6
20260508073933 49 98 0.0 1.7 0.00 0.00 0.00 93 1015.5
20260508073431 49 93 2.6 2.6 0.00 0.00 0.00 94 1015.5
20260508072927 49 89 0.9 1.7 0.00 0.00 0.00 93 1015.3
20260508072423 49 95 0.9 1.7 0.00 0.00 0.00 93 1015.5
20260508071921 50 66 1.7 2.6 0.00 0.00 0.00 93 1015.5
20260508071419 49 93 1.7 1.7 0.00 0.00 0.00 93 1015.5
20260508070916 49 81 1.7 1.7 0.00 0.00 0.00 93 1015.5
20260508070414 50 140 0.0 1.7 0.00 0.00 0.00 92 1015.2
20260508065912 50 80 1.7 1.7 0.00 0.00 0.00 92 1015.3
20260508065410 50 88 1.7 1.7 0.00 0.00 0.00 92 1015.2
20260508064908 50 110 0.0 1.7 0.00 0.00 0.00 93 1015.2
20260508064405 50 88 1.7 1.7 0.00 0.00 0.00 93 1015.0
20260508063903 50 68 1.7 1.7 0.00 0.00 0.00 93 1015.1
20260508063400 50 95 1.7 1.7 0.00 0.00 0.00 93 1014.9
20260508062857 50 85 1.7 1.7 0.00 0.00 0.00 93 1015.2
20260508062354 50 93 1.7 1.7 0.00 0.00 0.00 93 1015.0
20260508061852 50 61 1.7 1.7 0.00 0.00 0.00 92 1015.0
20260508061349 51 64 1.7 1.7 0.00 0.00 0.00 93 1015.2
20260508060845 51 80 0.9 1.7 0.00 0.00 0.00 92 1015.3
20260508060343 51 86 1.7 1.7 0.00 0.00 0.00 92 1015.2
20260508055837 51 77 1.7 1.7 0.00 0.00 0.00 91 1015.3
20260508055336 51 70 1.7 1.7 0.00 0.00 0.00 91 1015.1
20260508054832 51 70 1.7 1.7 0.00 0.00 0.00 91 1015.2
20260508054330 51 127 0.0 1.7 0.00 0.00 0.00 91 1015.2
20260508053827 51 95 0.9 1.7 0.00 0.00 0.00 91 1015.3
20260508053325 51 111 0.9 1.7 0.00 0.00 0.00 91 1015.1
20260508052822 51 96 1.7 1.7 0.00 0.00 0.00 90 1015.2
20260508052318 52 116 0.0 1.7 0.00 0.00 0.00 91 1015.2
20260508051815 52 102 1.7 2.6 0.00 0.00 0.00 92 1015.2
20260508051309 52 78 1.7 2.6 0.00 0.00 0.00 92 1015.1
20260508050806 52 94 1.7 1.7 0.00 0.00 0.00 91 1015.2
20260508050304 52 81 1.7 1.7 0.00 0.00 0.00 92 1014.9
20260508045759 52 91 1.7 2.6 0.00 0.00 0.00 91 1014.8
20260508045257 52 74 1.7 2.6 0.00 0.00 0.00 90 1014.8
20260508044754 52 97 0.9 1.7 0.00 0.00 0.00 88 1014.9
20260508044251 52 91 1.7 1.7 0.00 0.00 0.00 90 1015.0
20260508043747 53 58 1.7 2.6 0.00 0.00 0.00 89 1014.9
20260508043245 53 113 0.0 1.7 0.00 0.00 0.00 87 1014.8
20260508042741 53 100 1.7 1.7 0.00 0.00 0.00 87 1014.7
20260508042239 53 78 1.7 1.7 0.00 0.00 0.00 88 1014.5
20260508041735 53 75 1.7 1.7 0.00 0.00 0.00 89 1014.7
20260508041232 53 105 1.7 2.6 0.00 0.00 0.00 88 1014.8
20260508040728 53 123 1.7 1.7 0.00 0.00 0.00 88 1014.8
20260508040226 53 124 0.0 1.7 0.00 0.00 0.00 90 1014.8
20260508035723 53 76 0.0 1.7 0.00 0.19 0.19 89 1014.8
20260508035220 53 73 1.7 1.7 0.00 0.19 0.19 89 1014.7
20260508034717 53 124 0.0 1.7 0.00 0.19 0.19 90 1014.7
20260508034214 53 91 1.7 1.7 0.00 0.19 0.19 88 1014.7
20260508033711 53 92 0.9 1.7 0.00 0.19 0.19 90 1014.7
20260508033210 54 74 1.7 1.7 0.00 0.19 0.19 90 1014.5
20260508032706 54 50 1.7 2.6 0.00 0.19 0.19 89 1014.4
20260508032203 55 74 1.7 2.6 0.00 0.19 0.19 88 1014.8
20260508031700 55 110 1.7 2.6 0.00 0.19 0.19 85 1014.7
20260508031156 55 113 0.9 1.7 0.00 0.19 0.19 86 1014.5
20260508030652 55 78 1.7 1.7 0.00 0.19 0.19 82 1014.7
20260508030151 55 118 0.9 1.7 0.00 0.19 0.19 85 1014.8
20260508025646 55 121 1.7 1.7 0.00 0.19 0.19 85 1014.5
20260508025144 55 107 0.0 1.7 0.00 0.19 0.19 82 1014.4
20260508024639 56 114 0.0 1.7 0.00 0.19 0.19 85 1014.4
20260508024137 56 114 0.9 1.7 0.00 0.19 0.19 82 1014.3
20260508023633 56 121 0.9 1.7 0.00 0.19 0.19 85 1014.3
20260508023131 55 89 0.0 1.7 0.00 0.19 0.19 81 1014.3
20260508022626 55 97 1.7 2.6 0.00 0.19 0.19 78 1014.0
20260508022124 55 105 1.7 1.7 0.00 0.19 0.19 82 1014.1
20260508021619 56 110 2.6 2.6 0.00 0.19 0.19 82 1014.1
20260508021115 56 141 1.7 1.7 0.00 0.19 0.19 80 1013.9
20260508020613 56 162 0.0 1.7 0.00 0.19 0.19 79 1013.9
20260508020111 56 97 0.9 1.7 0.00 0.19 0.19 82 1013.6
20260508015608 56 99 0.9 1.7 0.00 0.19 0.19 84 1013.7
20260508015105 56 104 0.0 2.6 0.00 0.19 0.19 84 1013.7
20260508014601 57 114 2.6 2.6 0.00 0.19 0.19 84 1013.7
20260508014057 57 92 1.7 1.7 0.00 0.19 0.19 86 1013.3
20260508013553 57 77 1.7 1.7 0.00 0.19 0.19 85 1013.3
20260508013051 58 87 1.7 1.7 0.00 0.19 0.19 83 1013.3
20260508012548 58 85 1.7 1.7 0.00 0.19 0.19 80 1013.1
20260508012045 58 83 1.7 1.7 0.00 0.19 0.19 79 1013.0
20260508011544 59 85 1.7 1.7 0.00 0.19 0.19 76 1013.0
20260508011041 59 96 1.7 1.7 0.00 0.19 0.19 78 1012.9
20260508010537 59 150 0.0 0.9 0.00 0.19 0.19 74 1012.7
20260508010035 59 345 0.0 1.7 0.00 0.19 0.19 76 1012.7
20260508005531 59 31 1.7 1.7 0.00 0.19 0.19 85 1012.5
20260508005028 59 91 1.7 2.6 0.00 0.19 0.19 92 1012.7
20260508004524 59 87 1.7 2.6 0.00 0.19 0.19 92 1012.4
20260508004021 59 64 1.7 2.6 0.00 0.19 0.19 92 1012.3
20260508003517 59 76 1.7 1.7 0.00 0.19 0.19 91 1011.9
20260508003015 59 65 0.9 1.7 0.00 0.19 0.19 91 1012.0
20260508002511 60 60 0.9 1.7 0.00 0.19 0.19 91 1011.6
20260508002008 60 65 0.0 1.7 0.00 0.19 0.19 90 1011.6
20260508001505 60 46 1.7 1.7 0.00 0.19 0.19 89 1011.7
20260508001001 60 20 1.7 1.7 0.00 0.19 0.19 89 1011.7
20260508000457 60 37 0.9 1.7 0.00 0.19 0.19 89 1011.7
20260507235954 60 40 1.7 1.7 0.00 0.19 0.19 89 1011.7
20260507235450 60 35 1.7 1.7 0.00 0.19 0.19 88 1011.6
20260507234949 60 44 0.9 1.7 0.00 0.19 0.19 88 1011.4
20260507234444 60 46 1.7 1.7 0.00 0.19 0.19 87 1011.3
20260507233941 61 34 0.9 1.7 0.00 0.19 0.19 87 1011.1
20260507233438 61 40 0.9 1.7 0.00 0.19 0.19 87 1011.2
20260507232936 61 38 0.9 1.7 0.00 0.19 0.19 87 1011.3
20260507232433 61 39 0.0 1.7 0.00 0.19 0.19 87 1011.3
20260507231930 61 35 1.7 1.7 0.00 0.19 0.19 87 1011.2
20260507231426 61 53 0.9 1.7 0.00 0.19 0.19 87 1011.2
20260507230923 61 70 0.9 1.7 0.00 0.19 0.19 87 1011.1
20260507230421 62 31 0.0 1.7 0.00 0.19 0.19 87 1011.0
20260507225920 62 358 0.0 1.7 0.00 0.19 0.19 87 1010.5
20260507225417 62 50 0.9 1.7 0.00 0.19 0.19 87 1010.6
20260507224913 62 23 0.0 1.7 0.00 0.19 0.19 86 1010.5
20260507224409 62 13 1.7 2.6 0.00 0.19 0.19 87 1010.3
20260507223906 62 51 0.0 1.7 0.00 0.19 0.19 87 1010.1
20260507223402 62 15 0.9 1.7 0.00 0.19 0.19 86 1010.1
20260507222859 62 19 1.7 1.7 0.00 0.19 0.19 87 1010.2
20260507222355 62 21 1.7 1.7 0.00 0.19 0.19 86 1010.2
20260507221852 63 22 1.7 1.7 0.00 0.19 0.19 86 1010.1
20260507221349 63 22 1.7 2.6 0.00 0.19 0.19 88 1009.9
20260507220845 63 31 0.9 1.7 0.00 0.19 0.19 87 1009.9
20260507220343 63 43 0.0 1.7 0.00 0.19 0.19 87 1009.8
20260507215840 63 3 0.9 1.7 0.00 0.19 0.19 87 1009.6
20260507215337 63 354 0.0 1.7 0.00 0.19 0.19 87 1009.5
20260507214834 63 338 0.0 1.7 0.00 0.19 0.19 87 1009.7
20260507214332 63 322 0.9 1.7 0.00 0.19 0.19 87 1009.5
20260507213832 63 41 0.9 1.7 0.00 0.19 0.19 86 1009.5
20260507213329 64 9 1.7 2.6 0.00 0.19 0.19 86 1008.8
20260507212825 64 351 0.9 2.6 0.00 0.19 0.19 88 1008.4
20260507212321 64 358 1.7 2.6 0.00 0.19 0.19 89 1008.5
20260507211818 65 354 0.0 3.5 0.00 0.19 0.19 90 1008.8
20260507211315 65 23 0.0 2.6 0.00 0.19 0.19 88 1008.9
20260507210812 65 324 0.0 1.7 0.00 0.19 0.19 88 1008.2
20260507210309 66 304 1.7 1.7 0.00 0.19 0.19 87 1008.2
20260507205805 68 345 0.9 1.7 0.00 0.19 0.19 85 1008.0
20260507205306 71 317 1.7 2.6 0.00 0.19 0.19 82 1008.2
20260507204758 72 348 0.0 1.7 0.00 0.19 0.19 87 1007.9
20260507204256 71 25 0.0 0.9 0.00 0.19 0.19 85 1007.9
20260507203753 71 262 0.0 0.0 0.00 0.19 0.19 90 1007.9
20260507203251 71 293 0.0 1.7 0.00 0.19 0.19 87 1008.3
20260507202747 72 13 0.0 0.9 0.00 0.19 0.19 89 1007.9
20260507202243 72 32 0.9 0.9 0.00 0.19 0.19 88 1008.0
20260507201738 71 116 0.0 1.7 0.00 0.19 0.19 89 1008.0
20260507201235 70 36 0.0 1.7 0.00 0.19 0.19 90 1007.9
20260507200731 70 126 0.0 1.7 0.00 0.19 0.19 90 1008.1
20260507200227 69 113 0.0 1.7 0.00 0.19 0.19 90 1008.2
20260507195724 69 87 0.9 1.7 0.00 0.19 0.19 91 1008.1
20260507195221 68 55 0.9 1.7 0.00 0.19 0.19 88 1008.5
20260507194718 69 96 1.7 3.5 0.00 0.19 0.19 86 1008.5
20260507194214 71 109 0.0 1.7 0.50 0.19 0.19 84 1008.9
20260507193711 72 56 0.0 0.9 0.42 0.18 0.18 81 1008.9
20260507193208 74 277 0.9 0.9 0.00 0.11 0.11 72 1008.7
20260507192704 76 301 0.0 1.7 0.00 0.11 0.11 69 1008.4
20260507192201 77 280 0.9 1.7 0.00 0.11 0.11 68 1008.6
20260507191656 77 226 0.0 1.7 0.00 0.11 0.11 66 1008.6
20260507191154 78 130 0.0 1.7 0.00 0.11 0.11 64 1008.6
20260507190651 78 43 1.7 4.3 0.00 0.11 0.11 60 1008.8
20260507190150 78 249 1.7 2.6 0.00 0.11 0.11 65 1008.8
20260507185648 77 165 2.6 2.6 0.00 0.11 0.11 62 1008.7
20260507185144 77 100 0.9 1.7 0.00 0.11 0.11 64 1008.4
20260507184642 76 304 0.0 2.6 0.00 0.11 0.11 70 1008.5
20260507184140 76 67 0.0 1.7 0.00 0.11 0.11 66 1008.7
20260507183636 74 235 0.9 1.7 0.00 0.11 0.11 71 1008.8
20260507183133 74 121 0.0 0.9 0.00 0.11 0.11 73 1008.8
20260507182629 75 103 0.9 1.7 0.00 0.11 0.11 70 1008.9
20260507182125 74 232 0.9 1.7 0.00 0.11 0.11 71 1009.1
20260507181622 74 53 1.7 2.6 0.00 0.11 0.11 74 1008.8
20260507181118 74 273 1.7 1.7 0.00 0.11 0.11 73 1008.8
20260507180615 73 91 2.6 3.5 0.00 0.11 0.11 73 1008.9
20260507180112 73 177 0.0 2.6 0.00 0.11 0.11 76 1009.0
20260507175608 72 59 1.7 2.6 0.00 0.11 0.11 74 1008.9
20260507175106 72 11 1.7 4.3 0.00 0.11 0.11 77 1009.0
20260507174602 71 255 1.7 1.7 0.00 0.11 0.11 78 1009.2
20260507174100 71 167 0.0 2.6 0.00 0.11 0.11 77 1009.3
20260507173557 71 94 2.6 2.6 0.00 0.11 0.11 79 1009.4
20260507173054 70 269 0.0 0.9 0.00 0.11 0.11 83 1009.3
20260507172550 71 255 1.7 1.7 0.00 0.11 0.11 82 1009.4
20260507172047 71 66 0.9 1.7 0.00 0.11 0.11 83 1009.5
20260507171542 70 115 1.7 4.3 0.00 0.11 0.11 83 1009.7
20260507171040 69 55 0.9 1.7 0.00 0.11 0.11 85 1009.6
20260507170536 69 83 0.0 3.5 0.00 0.11 0.11 84 1009.8
20260507170033 69 95 0.9 3.5 0.00 0.11 0.11 86 1009.7
20260507165529 69 55 0.0 1.7 0.00 0.11 0.11 90 1009.9
20260507165026 68 113 0.0 2.6 0.00 0.11 0.11 88 1010.0
20260507164522 68 53 0.0 1.7 0.00 0.11 0.11 88 1009.9
20260507164019 68 72 1.7 1.7 0.00 0.11 0.11 89 1010.1
20260507163516 68 40 1.7 2.6 0.00 0.11 0.11 89 1010.0
20260507163015 68 37 0.0 0.9 0.00 0.11 0.11 90 1009.7
20260507162509 68 47 0.0 1.7 0.00 0.11 0.11 89 1009.6
20260507162006 68 198 0.0 2.6 0.00 0.11 0.11 93 1009.8
20260507161502 67 110 2.6 3.5 0.00 0.11 0.11 92 1009.9
20260507160959 67 92 0.0 2.6 0.00 0.11 0.11 94 1010.0
20260507160455 67 89 1.7 2.6 0.00 0.11 0.11 94 1010.0
20260507155951 67 103 0.0 0.9 0.00 0.11 0.11 93 1010.5
20260507155447 67 112 0.9 3.5 0.00 0.11 0.11 93 1010.3
20260507154944 66 127 1.7 2.6 0.00 0.11 0.11 94 1009.8
20260507154441 66 104 0.0 0.9 0.00 0.11 0.11 94 1009.8
20260507153938 66 84 1.7 2.6 0.00 0.11 0.11 94 1009.7
20260507153435 66 104 1.7 1.7 0.00 0.11 0.11 96 1009.8
20260507152931 65 150 0.0 1.7 0.02 0.11 0.11 96 1009.3
20260507152427 65 199 0.9 0.9 0.02 0.11 0.11 98 1009.4
20260507151923 65 45 0.0 0.9 0.00 0.10 0.10 98 1009.4
20260507151420 65 224 0.9 0.9 0.00 0.10 0.10 98 1009.5
20260507150917 65 48 0.0 1.7 0.02 0.10 0.10 98 1009.6
20260507150414 64 81 0.0 1.7 0.02 0.10 0.10 98 1009.9
20260507145910 64 75 1.7 1.7 0.02 0.10 0.10 98 1010.4